Home > Weather > Longueuil > Past weeks

Flag for Canada Weather for the Past 2 Weeks in Longueuil, Quebec, Canada

Now
29 °F

Chilly.


Feels Like: 26 °F
Forecast: N/A
Wind: 3 mph from Northwest

Location: Mc Tavish

Current Time: Feb 5, 2016 at 5:29:24 PM

Latest Report: Feb 5, 2016 at 4:00 PM


Visibility: N/A

Pressure: 30.19 "Hg

Humidity: 53%

Dew point: 14 °F

Location of LongueuilLocation

Historic Weather in Longueuil — Graph

°F

Longueuil Temperature Yesterday

Maximum temperature yesterday: 47 °F (at 1:00 AM)
Minimum temperature yesterday: 31 °F (at 11:00 PM)
Average temperature yesterday: 39 °F

High & Low Weather Summary for the Past Weeks

 TemperatureHumidityPressure
High47 °F (Feb 4, 1:00 AM)100% (Jan 29, 2:00 PM)30.41 "Hg (Jan 29, 2:00 PM)
Low10 °F (Jan 23, 8:00 AM)48% (Jan 22, 1:00 PM)29.45 "Hg (Jan 29, 1:00 PM)
Average27 °F76%29.99 "Hg
* Reported Jan 21 4:00 PM — Feb 5 4:00 PM, Longueuil, Weather by CustomWeather, © 2016

Note: Actual official high and low records may vary slightly from our data, if they occured in-between our weather recording intervals... More about our weather records

Advertising

Longueuil Weather History for the Previous 24 Hours

 ConditionsComfort  
Time TempWeatherWind HumidityBarometerVisibility
4:00 PM
Fri, Feb 5
29 °FChilly.3 mph53%30.19 "HgN/A
3:00 PM27 °FChilly.2 mph58%30.18 "HgN/A
2:00 PM26 °FChilly.3 mph56%30.18 "HgN/A
1:00 PM24 °FCold.6 mph61%30.18 "HgN/A
12:00 PM23 °FCold.3 mph63%30.21 "HgN/A
11:00 AM21 °FCold.7 mph68%30.21 "HgN/A
10:00 AM22 °FCold.5 mph72%30.23 "HgN/A
9:00 AM22 °FCold.5 mph77%30.24 "HgN/A
8:00 AM22 °FCold.3 mph74%30.25 "HgN/A
7:00 AM22 °FCold.6 mph77%30.22 "HgN/A
6:00 AM23 °FCold.7 mph68%30.21 "HgN/A
5:00 AM24 °FCold.6 mph71%30.20 "HgN/A
4:00 AM25 °FCold.8 mph73%30.18 "HgN/A
3:00 AM28 °FChilly.7 mph72%30.16 "HgN/A
2:00 AM30 °FChilly.3 mph68%30.17 "HgN/A
1:00 AM32 °FChilly.2 mph64%30.16 "HgN/A
12:00 AM31 °FChilly.2 mph65%30.14 "HgN/A
11:00 PM
Thu, Feb 4
31 °FChilly.2 mph64%30.14 "HgN/A
10:00 PM33 °FChilly.2 mph64%30.13 "HgN/A
9:00 PM34 °FChilly.3 mph68%30.12 "HgN/A
8:00 PM35 °FChilly.1 mph68%30.11 "HgN/A
7:00 PM35 °FChilly.1 mph67%30.12 "HgN/A
6:00 PM35 °FChilly.3 mph66%30.09 "HgN/A
5:00 PM36 °FChilly.2 mph65%30.06 "HgN/A
Weather by CustomWeather, © 2016

See weather overviewHow to use our weather pages